User: anonymous   Login
Location: Fisheating Creek Campgrounds
(26.9333°N, 81.3167°W)
Time: 02:53:15
(UTC-04:00)
Language:

Cosmos 2221 Rocket - Orbit

View from above orbital plane
View from above orbital plane
View from above satellite
View from above satellite

Ground track
Ground track

The orbit data is extracted from the following two-line orbital elements,

1 22237U 92080B   16205.72598100  .00000118  00000-0  13091-4 0  9999
2 22237  82.5108  63.2629 0019285 195.3127 234.4202 14.78271678274914
Epoch (UTC): 23 July 2016 17:25:24
Eccentricity: 0.0019285
inclination: 82.5108°
perigee height: 621 km
apogee height: 648 km
right ascension of ascending node: 63.2629°
argument of perigee: 195.3127°
revolutions per day: 14.78271678
mean anomaly at epoch: 234.4202°
orbit number at epoch: 27491

The dashed part of the orbit path shows where the satellite is in the earth's shadow,  

DLR